Weather History for KRPJ - April, 2013

Change the Weather History Date:

Tuesday, April 23, 2013

  Actual Average (KRFD) Record (KRFD)
Temperature  
Mean Temperature 44 °F 52 °F  
Max Temperature 52 °F 64 °F 86 °F (1925)
Min Temperature 36 °F 41 °F 22 °F (1927)
Degree Days  
Heating Degree Days 20 13  
Month to date heating degree days 394  
Since 1 July heating degree days 6258  
Cooling Degree Days 0 0  
Month to date cooling degree days 0  
Year to date cooling degree days 0  
Moisture  
Dew Point 41 °F    
Average Humidity 91    
Maximum Humidity 95    
Minimum Humidity 65    
Precipitation  
Precipitation 0.45 in 0.11 in 1.66 in (1919)
Month to date precipitation 2.55  
Year to date precipitation 7.65  
Snow  
Snow 0.00 in 0.10 in 3.80 in (1967)
Month to date snowfall 0.9  
Since 1 July snowfall 36.7  
Snow Depth -    
Sea Level Pressure  
Sea Level Pressure 29.96 in    
Wind  
Wind Speed 9 mph (NNW)    
Max Wind Speed 18 mph    
Max Gust Speed 25 mph    
Visibility 9 miles    
Events Rain    
T = Trace of Precipitation, MM = Missing Value Source: NWS Daily Summary

Daily Weather History Graph

Daily Weather History Graph

Search for Another Location

Airport or City:

Trip Planner

Search our weather history database for the weather conditions in past years. The results will help you decide how hot, cold, wet, or windy it might be!

Date:

Astronomy

Apr. 23, 2013 Rise Set
Actual Time 6:03 AM CDT 7:46 PM CDT
Civil Twilight 5:33 AM CDT 8:16 PM CDT
Nautical Twilight 4:57 AM CDT 8:52 PM CDT
Astronomical Twilight 4:19 AM CDT 9:30 PM CDT
Moon 5:39 PM CDT (4/23) 4:33 AM CDT (4/23)
Length of Visible Light 14h 42m
Length of Day
13h 43m
Waxing Gibbous, 94% of the Moon is Illuminated
Apr 23
Waxing Gibbous
Apr 25
Full
May 2
Last Quarter
May 9
New
May 17
First Quarter

Hourly Weather History & Observations

Time (CDT) Temp. Windchill Dew Point Humidity Pressure Visibility Wind Dir Wind Speed Gust Speed Precip Events Conditions
12:15 AM 53.2 °F - 41.7 °F 65% 30.02 in 10.0 mi SSE 11.5 mph - N/A   Overcast
12:35 AM 53.6 °F - 42.1 °F 65% 30.01 in 10.0 mi SSE 11.5 mph - N/A   Light Drizzle
12:55 AM 52.3 °F - 43.5 °F 72% 30.03 in 10.0 mi SSW 11.5 mph - N/A Rain Rain
1:15 AM 50.9 °F - 46.9 °F 86% 30.04 in 7.0 mi WSW 10.4 mph 25.3 mph N/A   Drizzle
1:35 AM 50.0 °F - 47.3 °F 90% 30.02 in 10.0 mi Calm Calm - N/A Rain Rain
1:55 AM 49.3 °F - 46.9 °F 92% 30.01 in 10.0 mi Calm Calm - N/A   Mostly Cloudy
2:15 AM 48.2 °F - 46.4 °F 93% 30.00 in 10.0 mi South 3.5 mph - N/A   Mostly Cloudy
2:35 AM 48.2 °F - 46.9 °F 95% 29.98 in 10.0 mi SE 4.6 mph - N/A   Drizzle
2:55 AM 48.2 °F - 46.9 °F 95% 29.98 in 10.0 mi ESE 5.8 mph - N/A   Overcast
3:15 AM 48.2 °F - 46.8 °F 95% 29.98 in 10.0 mi ESE 4.6 mph - N/A   Overcast
3:35 AM 48.2 °F - 46.9 °F 95% 29.97 in 10.0 mi SE 4.6 mph - N/A   Overcast
3:55 AM 48.2 °F - 46.4 °F 93% 29.96 in 10.0 mi SE 3.5 mph - N/A Rain Light Rain
4:15 AM 48.2 °F - 46.4 °F 93% 29.95 in 10.0 mi ESE 4.6 mph - N/A   Light Drizzle
4:35 AM 48.2 °F - 46.6 °F 94% 29.95 in 10.0 mi Calm Calm - N/A   Overcast
4:55 AM 47.7 °F - 45.9 °F 93% 29.94 in 10.0 mi Calm Calm - N/A   Overcast
5:15 AM 47.3 °F - 46.0 °F 95% 29.94 in 10.0 mi SSE 3.5 mph - N/A   Overcast
5:35 AM 47.8 °F - 46.4 °F 95% 29.94 in 10.0 mi SSE 4.6 mph - N/A   Overcast
5:55 AM 47.8 °F - 46.0 °F 93% 29.96 in 10.0 mi West 3.5 mph - N/A   Overcast
6:15 AM 47.7 °F - 46.4 °F 95% 29.96 in 7.0 mi Calm Calm - N/A   Overcast
6:35 AM 47.8 °F - 46.2 °F 94% 29.95 in 7.0 mi Calm Calm - N/A   Overcast
6:55 AM 47.7 °F - 46.4 °F 95% 29.94 in 7.0 mi South 4.6 mph - N/A   Mostly Cloudy
7:15 AM 47.8 °F - 46.6 °F 95% 29.93 in 7.0 mi Calm Calm - N/A   Clear
7:35 AM 48.4 °F - 47.1 °F 95% 29.94 in 5.0 mi Calm Calm - N/A   Clear
7:55 AM 49.5 °F - 48.2 °F 95% 29.95 in 7.0 mi WSW 3.5 mph - N/A   Scattered Clouds
8:15 AM 50.9 °F - 48.4 °F 91% 29.95 in 10.0 mi West 4.6 mph - N/A   Scattered Clouds
8:35 AM 50.9 °F - 48.4 °F 91% 29.95 in 10.0 mi NW 8.1 mph - N/A   Mostly Cloudy
8:55 AM 50.5 °F - 48.0 °F 91% 29.94 in 10.0 mi NW 8.1 mph - N/A   Overcast
9:15 AM 50.4 °F - 48.2 °F 92% 29.94 in 10.0 mi NW 6.9 mph - N/A   Overcast
9:35 AM 50.4 °F - 47.5 °F 90% 29.95 in 10.0 mi WNW 9.2 mph - N/A   Overcast
9:55 AM 49.1 °F - 46.8 °F 92% 29.96 in 7.0 mi WNW 12.7 mph - N/A   Drizzle
10:15 AM 47.3 °F - 44.6 °F 90% 29.96 in 10.0 mi WNW 10.4 mph - N/A   Light Drizzle
10:35 AM 46.8 °F - 44.2 °F 91% 29.96 in 7.0 mi NW 10.4 mph - 0.01 in   Drizzle
10:55 AM 44.8 °F 38.3 °F 42.4 °F 91% 29.98 in 4.0 mi NW 13.8 mph - 0.03 in Rain Rain
11:15 AM 43.7 °F 37.3 °F 41.5 °F 92% 29.97 in 4.0 mi NNW 12.7 mph - 0.03 in Rain Light Rain
11:35 AM 42.8 °F 35.8 °F 40.6 °F 92% 29.98 in 5.0 mi NW 13.8 mph - 0.06 in Rain Light Rain
11:55 AM 41.9 °F 33.7 °F 39.6 °F 91% 29.96 in 5.0 mi NNW 17.3 mph - 0.09 in Rain Rain
12:15 PM 41.4 °F 34.3 °F 39.4 °F 93% 29.96 in 5.0 mi NNW 12.7 mph - 0.02 in Rain Rain
12:35 PM 41.0 °F 33.5 °F 39.2 °F 93% 29.97 in 5.0 mi NW 13.8 mph 17.3 mph 0.04 in Rain Rain
12:55 PM 40.8 °F 34.1 °F 39.0 °F 93% 29.97 in 4.0 mi NNW 11.5 mph 17.3 mph 0.08 in Rain Rain
1:15 PM 40.6 °F 33.8 °F 38.8 °F 93% 29.98 in 5.0 mi NW 11.5 mph - 0.03 in Rain Rain
1:35 PM 40.6 °F 34.8 °F 38.8 °F 93% 29.98 in 10.0 mi NW 9.2 mph - 0.05 in Rain Light Rain
1:55 PM 41.0 °F 33.1 °F 39.2 °F 93% 29.97 in 7.0 mi NNW 15.0 mph - 0.07 in Rain Light Rain
2:15 PM 40.3 °F 32.6 °F 38.3 °F 93% 29.96 in 7.0 mi NNW 13.8 mph - 0.01 in Rain Light Rain
2:35 PM 40.1 °F 32.4 °F 37.8 °F 91% 29.94 in 10.0 mi NNW 13.8 mph - 0.02 in Rain Light Rain
2:55 PM 40.6 °F 33.4 °F 38.3 °F 91% 29.94 in 10.0 mi North 12.7 mph - 0.02 in   Light Drizzle
3:15 PM 40.5 °F 32.5 °F 38.3 °F 92% 29.94 in 10.0 mi NNW 15.0 mph 18.4 mph N/A Rain Light Rain
3:35 PM 40.5 °F 32.5 °F 38.3 °F 92% 29.93 in 10.0 mi NNW 15.0 mph 20.7 mph 0.01 in Rain Light Rain
3:55 PM 40.5 °F 32.1 °F 38.1 °F 91% 29.93 in 10.0 mi North 16.1 mph - 0.01 in Rain Light Rain
4:15 PM 39.9 °F 30.8 °F 37.4 °F 91% 29.93 in 10.0 mi North 18.4 mph - N/A Rain Light Rain
4:35 PM 39.2 °F 29.8 °F 37.2 °F 93% 29.93 in 7.0 mi North 18.4 mph - 0.02 in Rain Light Rain
4:55 PM 38.7 °F 29.5 °F 36.7 °F 93% 29.94 in 7.0 mi North 17.3 mph - 0.03 in Rain Light Rain
5:15 PM 38.3 °F 29.7 °F 36.5 °F 93% 29.94 in 7.0 mi North 15.0 mph 21.9 mph 0.02 in Rain Rain
5:35 PM 38.3 °F 29.7 °F 36.3 °F 93% 29.96 in 10.0 mi NNW 15.0 mph - 0.03 in Rain Light Rain
5:55 PM 38.3 °F 30.1 °F 36.0 °F 91% 29.98 in 10.0 mi NNW 13.8 mph - 0.04 in Rain Light Rain
6:15 PM 37.4 °F 28.9 °F 35.2 °F 92% 29.97 in 7.0 mi NNW 13.8 mph - 0.01 in Rain Rain
6:35 PM 36.7 °F 29.4 °F 35.1 °F 94% 29.97 in 7.0 mi North 10.4 mph - 0.06 in Rain Rain
6:55 PM 37.2 °F 29.6 °F 35.6 °F 94% 29.96 in 10.0 mi North 11.5 mph - 0.07 in Rain Light Rain
7:15 PM 37.6 °F 29.6 °F 36.0 °F 94% 29.96 in 10.0 mi North 12.7 mph - 0.01 in Rain Rain
7:35 PM 37.6 °F 29.6 °F 35.8 °F 93% 29.96 in 10.0 mi North 12.7 mph - 0.01 in   Light Drizzle
7:55 PM 37.4 °F 29.8 °F 35.6 °F 93% 29.96 in 10.0 mi North 11.5 mph - 0.01 in   Overcast
8:15 PM 37.4 °F 30.3 °F 35.6 °F 93% 29.95 in 10.0 mi North 10.4 mph - N/A   Overcast
8:35 PM 37.8 °F 30.7 °F 36.3 °F 95% 29.96 in 10.0 mi North 10.4 mph - N/A   Overcast
8:55 PM 37.8 °F 31.8 °F 36.3 °F 95% 29.96 in 10.0 mi North 8.1 mph - N/A   Overcast
9:15 PM 38.1 °F 31.7 °F 36.5 °F 94% 29.96 in 10.0 mi NNW 9.2 mph - N/A   Overcast
9:35 PM 38.3 °F 32.5 °F 36.5 °F 93% 29.98 in 10.0 mi NNW 8.1 mph - N/A   Overcast
9:55 PM 38.5 °F 31.6 °F 36.5 °F 93% 29.96 in 10.0 mi NNW 10.4 mph - N/A   Overcast
10:15 PM 38.7 °F 30.9 °F 35.2 °F 87% 29.97 in 10.0 mi North 12.7 mph - N/A   Overcast
10:35 PM 38.7 °F 32.4 °F 34.7 °F 86% 29.97 in 10.0 mi North 9.2 mph - N/A   Overcast
10:55 PM 38.5 °F 32.1 °F 34.9 °F 87% 29.98 in 10.0 mi NNW 9.2 mph - N/A   Overcast
11:15 PM 38.5 °F 32.1 °F 34.5 °F 86% 29.98 in 10.0 mi NNW 9.2 mph - N/A   Mostly Cloudy
11:35 PM 38.7 °F 32.4 °F 33.8 °F 83% 29.99 in 10.0 mi NNW 9.2 mph - N/A   Mostly Cloudy
11:55 PM 38.7 °F 32.4 °F 33.8 °F 83% 29.98 in 10.0 mi North 9.2 mph - N/A   Overcast